Date,TemperatureHighF,TemperatureAvgF,TemperatureLowF,DewpointHighF,DewpointAvgF,DewpointLowF,HumidityHigh,HumidityAvg,HumidityLow,PressureMaxIn,PressureMinIn,WindSpeedMaxMPH,WindSpeedAvgMPH,GustSpeedMaxMPH,PrecipitationSumIn
2013-1-1,42.5,39.2,32.8,40.9,37.8,31.5,95,95,93,30.18,30.02,17,3,17,0.45
2013-1-2,32.8,29.2,25.7,31.5,27.1,24.3,95,92,84,30.29,30.16,12,2,0,0.00
2013-1-3,43.3,31.7,25.1,28.9,24.2,19.5,95,76,41,30.46,30.26,9,1,0,0.00
2013-1-4,45.2,31.3,20.7,30.1,24.1,19.3,95,77,46,30.53,30.42,11,1,0,0.00
2013-1-5,46.4,35.6,21.7,32.6,27.0,20.2,94,73,49,30.47,30.28,11,2,0,0.00
2013-1-6,49.2,40.4,28.1,37.6,32.8,24.2,90,75,52,30.41,30.19,23,5,23,0.00
2013-1-7,48.6,33.1,22.9,31.2,26.0,20.8,93,77,47,30.48,30.30,10,2,0,0.00
2013-1-8,58.7,43.8,25.0,44.4,35.2,22.9,93,73,48,30.39,30.25,16,2,16,0.00
2013-1-9,53.3,51.7,49.1,50.9,48.9,43.6,94,91,75,30.42,30.30,13,3,13,1.50
2013-1-10,65.6,59.1,52.7,61.0,56.3,50.5,93,90,84,30.41,30.00,43,8,43,0.38
2013-1-11,70.5,65.1,60.6,63.3,60.2,57.4,93,85,67,30.07,29.96,36,7,36,0.22
2013-1-12,68.4,67.0,65.5,65.0,63.6,61.4,93,89,80,30.03,29.84,28,8,28,0.57
2013-1-13,70.0,55.6,35.1,64.7,52.2,32.9,94,89,79,30.22,29.81,27,7,27,1.35
2013-1-14,35.4,30.2,27.2,33.1,27.5,23.8,94,89,82,30.40,30.22,25,7,25,0.00
2013-1-15,33.5,31.6,28.6,32.5,30.2,27.1,96,95,93,30.29,30.04,22,6,22,0.00
2013-1-16,34.7,33.2,32.1,33.7,32.2,31.0,96,96,95,30.18,30.02,11,2,0,0.02
2013-1-17,43.7,37.2,32.8,35.8,31.7,26.6,95,81,72,30.48,30.08,33,7,33,0.02
2013-1-18,51.4,36.6,26.1,33.7,28.9,24.0,94,76,43,30.61,30.41,11,2,0,0.00
2013-1-19,55.7,46.1,36.7,34.1,31.2,27.9,73,57,39,30.42,30.18,24,6,24,0.00
2013-1-20,53.9,43.8,32.7,36.4,29.7,19.8,88,59,35,30.29,30.19,14,2,13,0.00
2013-1-21,39.7,32.0,25.1,24.2,17.7,12.7,79,57,38,30.34,30.19,19,3,19,0.00
2013-1-22,31.4,25.7,19.8,15.5,8.2,3.4,70,48,36,30.48,30.33,14,3,14,0.00
2013-1-23,53.3,38.4,25.1,34.8,23.1,9.2,82,55,43,30.42,30.18,19,3,19,0.00
2013-1-24,37.9,31.6,27.9,34.0,17.4,8.2,92,57,37,30.50,30.24,24,7,24,0.00
2013-1-25,42.0,34.3,29.3,37.7,29.9,10.1,95,85,43,30.33,30.05,20,3,20,0.61
2013-1-26,47.9,36.3,29.7,34.8,30.6,27.9,96,82,49,30.39,30.28,8,2,0,0.00
2013-1-27,50.7,41.4,27.4,42.7,35.8,26.1,95,81,64,30.39,30.25,18,4,18,0.01
2013-1-28,60.3,55.0,48.7,53.7,47.6,38.7,86,76,67,30.28,30.14,27,7,27,0.00
2013-1-29,69.4,62.4,55.9,63.3,58.5,52.0,93,87,81,30.16,29.62,37,8,37,0.00
2013-1-30,71.5,52.6,35.3,63.4,47.0,24.7,94,82,62,29.93,29.47,47,10,47,1.20
2013-1-31,46.6,38.0,30.8,35.7,25.7,22.0,95,62,45,30.25,29.93,31,7,31,0.07